Showing default

RISAT-2BR2, 46905

Orbit data source: Space-Track

RISAT-2BR2, 46905 is a payload satellite owned by ISRO (IN) in LEO that was launched on Sat, 07 Nov 2020 UTC via a PSLV-DL launch vehicle from the Sirharikota (SRI). Payload-class satellites include a variety of spacecraft equipped with specific instruments for various scientific and technological missions. These include communications satellites like Starlink; space stations such as the ISS; scientific satellites like the Hubble; Earth observation satellites from companies like Planet Labs, Umbra, and HawkEye 360; GPS; miniature CubeSats for education and research; and military/defense satellites.

Loading next visibility...
Identifier
46905, 2020-081A
Orbit
LEO
Country
Flag of ININ / IND
Related business
Manufacturer
ISRO
Mission
Operational Civil Radar Imaging
Bus & Motor
TECHSAR, Unknown motor
Mass
628 kg wet, 628 kg dry
Launch date (UTC)
2020-11-07 (5 years ago)
Launch vehicle
PSLV-DL
Launch site
Sirharikota (SRI)
Object type
Payload
Rocket body
Debris
Shape & HBR
Hex Cyl + 2 Pan + 1 Dish, Unknown HBR
Radar Cross Section
2.910 m², Large (>1 m²)

Expand to show TLE details & history
Last TLE update: 2 days ago

TLE from 2 days ago
0 RISAT-2BR2
1 46905U 20081A   25287.20924214  .00006397  00000-0  48982-3 0  9992
2 46905  36.8982 244.4386 0014695 305.6360  54.3013 15.01492305270488
Epoch: 2025-10-14T05:01Z
TLE epoch observation values (Epoch: 2025-10-14T05:01:18.520Z)
Latitude
0.00001°
Longitude
146.11049°
Altitude
555.47 km
Speed
7.589 km/s
True Right ascension
16h 17m 45s
True Declination
0° 00' 00"
Sunlit
Object was in daylight at epoch
Visualization orbit readout
Latitude
Unknown
Longitude
Unknown
Altitude
Unknown
Speed
Unknown
Apparent Right ascension
Unknown
Apparent Declination
Unknown
Sunlit
N/A
Visualization observer readout
Local Sidereal Time
01:59:56
Azimuth
Unknown
Elevation
Unknown
Doppler factor
Unknown
Orbital elements
Apogee altitude
575.417 km
Perigee altitude
555.01 km
Semi-major axis
6,943.351 km
Eccentricity
0.00147
Inclination
36.8982°
RAAN
244.4386°
Arg. of periapsis
305.636°
True anomaly
54.4382°
Mean anomaly
54.3013°
Eccentric anomaly
54.36973°
Mean motion
3.75137 °/min
Orbital period
95.97 mins
BSTAR
0.00048982
Loading maneuver chart data...
Computing Atmospheric mass density...
Loading historical data...
Loading historical data...
Loading historical data...
Loading historical data...
Loading historical data...
Loading historical data...
Loading historical data...

Documentation

Showing up to 5 results
|